Flag Weather past 2 weeks in Leverkusen, North Rhine-Westphalia, Germany

Now
54 °F

Sunny.


Feels Like: 53 °F
Forecast: 52 / 67 °F
Wind: 5 mph from Southeast

Location: Koeln / Bonn

Current Time: Oct 31, 2014 at 8:20:23 AM

Latest Report: Oct 31, 2014 at 7:50 AM


Visibility: 10 mi

Pressure: 30.24 "Hg

Humidity: 88%

Dew point: 50 °F

Location of LeverkusenLocation

Historic Weather in Leverkusen — Graph

°F

Leverkusen temperature yesterday

Maximum temperature yesterday: 59 °F (at 12:50 PM)
Minimum temperature yesterday: 50 °F (at 12:20 AM)
Average temperature yesterday: 55 °F

Past Weeks' High & Low Weather Summary

 TemperatureHumidityPressure
High75 °F (Oct 19, 1:50 PM)100% (Oct 25, 9:20 AM)30.30 "Hg (Oct 25, 9:20 AM)
Low36 °F (Oct 29, 7:20 AM)54% (Oct 19, 1:50 PM)29.53 "Hg (Oct 21, 4:20 PM)
Average53 °F85%30.08 "Hg
* Reported Oct 16 7:20 AM — Oct 31 6:50 AM, Leverkusen, Weather by CustomWeather, © 2014

Note: Actual official high and low records may vary slightly from our data, if they occured in-between our weather recording intervals... More about our weather records

Advertising

Leverkusen weather history for previous 24 hours

 ConditionsComfort  
Time TempWeatherWind HumidityBarometerVisibility
6:50 AM
Oct 31
54 °FClear.7 mph88%30.21 "Hg10 mi
6:20 AM54 °FClear.7 mph88%30.21 "Hg10 mi
5:50 AM54 °FClear.8 mph88%30.21 "Hg10 mi
5:20 AM54 °FClear.6 mph88%30.21 "Hg10 mi
4:50 AM54 °FClear.5 mph94%30.21 "Hg10 mi
4:20 AM54 °FClear.5 mph94%30.21 "Hg10 mi
3:50 AM54 °FClear.7 mph94%30.21 "Hg10 mi
3:20 AM54 °FClear.6 mph94%30.24 "Hg6 mi
2:50 AM54 °FClear.6 mph94%30.24 "Hg6 mi
2:20 AM54 °FFog.6 mph94%30.24 "HgN/A
1:50 AM54 °FClear.5 mph94%30.24 "Hg10 mi
1:20 AM54 °FClear.7 mph94%30.24 "Hg10 mi
12:50 AM54 °FClear.6 mph94%30.24 "Hg10 mi
12:20 AM55 °FClear.5 mph88%30.24 "Hg10 mi
11:50 PM
Oct 30
55 °FClear.5 mph88%30.24 "Hg10 mi
11:20 PM55 °FClear.7 mph88%30.24 "Hg10 mi
10:50 PM55 °FClear.5 mph88%30.24 "Hg10 mi
10:20 PM55 °FClear.6 mph88%30.24 "Hg10 mi
9:50 PM55 °FClear.6 mph88%30.24 "Hg10 mi
9:20 PM55 °FClear.7 mph94%30.24 "Hg10 mi
8:50 PM57 °FClear.8 mph88%30.24 "Hg10 mi
8:20 PM57 °FClear.7 mph88%30.24 "Hg10 mi
7:50 PM57 °FClear.8 mph88%30.24 "Hg10 mi
7:20 PM57 °FClear.7 mph88%30.24 "Hg10 mi
6:50 PM57 °FClear.7 mph88%30.24 "Hg10 mi
6:20 PM57 °FClear.7 mph88%30.24 "Hg10 mi
5:50 PM57 °FClear.7 mph88%30.21 "Hg10 mi
5:20 PM57 °FClear.7 mph88%30.21 "Hg10 mi
4:50 PM57 °FSunny.7 mph88%30.21 "Hg10 mi
4:20 PM59 °FSunny.6 mph82%30.21 "Hg10 mi
3:50 PM59 °FSunny.6 mph82%30.21 "Hg10 mi
3:20 PM59 °FSunny.6 mph82%30.21 "Hg10 mi
2:50 PM59 °FSunny.6 mph82%30.21 "Hg10 mi
2:20 PM59 °FSunny.8 mph82%30.21 "Hg10 mi
1:50 PM59 °FSunny.6 mph82%30.21 "Hg10 mi
1:20 PM59 °FBroken clouds.5 mph82%30.24 "HgN/A
12:50 PM59 °FBroken clouds.7 mph82%30.21 "HgN/A
12:20 PM57 °FPartly sunny.6 mph88%30.24 "HgN/A
11:50 AM55 °FPartly sunny.5 mph88%30.24 "HgN/A
11:20 AM55 °FBroken clouds.6 mph88%30.24 "HgN/A
10:50 AM54 °FPartly sunny.5 mph94%30.21 "HgN/A
10:20 AM54 °FPartly sunny.6 mph94%30.21 "Hg6 mi
9:50 AM54 °FBroken clouds.7 mph88%30.21 "Hg6 mi
9:20 AM54 °FPartly sunny.3 mph94%30.21 "Hg5 mi
8:50 AM52 °FPartly sunny.3 mph94%30.21 "Hg5 mi
8:20 AM52 °FPartly sunny.5 mph94%30.21 "Hg6 mi
Weather by CustomWeather, © 2014

See weather overviewHow to use our weather pages